Chadron, NE

11:17 AM MDT on June 22, 2017 (GMT -0600)
Chadron Municipal

Weather History for KCDR - April, 2013

Change the Weather History Date:

Sunday, April 28, 2013

  Actual Average Record
Temperature  
Mean Temperature 58 °F 49 °F  
Max Temperature 73 °F 65 °F 85 °F (2001)
Min Temperature 42 °F 34 °F 19 °F (1994)
Degree Days  
Heating Degree Days 7 16  
Month to date heating degree days 754 575  
Since 1 July heating degree days 6523 6732  
Cooling Degree Days 0 0  
Month to date cooling degree days 0 0  
Year to date cooling degree days 0 0  
Growing Degree Days 7 (Base 50)    
Moisture  
Dew Point 35 °F    
Average Humidity 48    
Maximum Humidity 71    
Minimum Humidity 25    
Precipitation  
Precipitation 0.00 in 0.09 in 0.69 in (2017)
Month to date precipitation 0.78 1.80  
Year to date precipitation 2.32 4.00  
Sea Level Pressure  
Sea Level Pressure 29.85 in    
Wind  
Wind Speed 10 mph (NNE)    
Max Wind Speed 24 mph    
Max Gust Speed 29 mph    
Visibility 10 miles    
Events      
T = Trace of Precipitation, MM = Missing Value Source: NWS Daily Summary

Daily Weather History Graph

Daily Weather History Graph

Search for Another Location

Airport or City:

Trip Planner

Search our weather history database for the weather conditions in past years. The results will help you decide how hot, cold, wet, or windy it might be!

Date:

Astronomy

Apr. 28, 2013 Rise Set
Actual Time 5:50 AM MDT 7:50 PM MDT
Civil Twilight 5:19 AM MDT 8:20 PM MDT
Nautical Twilight 4:42 AM MDT 8:58 PM MDT
Astronomical Twilight 4:01 AM MDT 9:39 PM MDT
Moon 11:25 PM MDT (4/28) 8:06 AM MDT (4/28)
Length of Visible Light 15h 01m
Length of Day
13h 59m
Waning Gibbous, 88% of the Moon is Illuminated
Apr 28
Waning Gibbous
May 2
Last Quarter
May 9
New
May 17
First Quarter
May 24
Full

Hourly Weather History & Observations

Time (MDT) Temp. Windchill Dew Point Humidity Pressure Visibility Wind Dir Wind Speed Gust Speed Precip Events Conditions
12:53 AM 48.9 °F - 34.0 °F 56% 29.81 in 10.0 mi WSW 10.4 mph - N/A   Clear
1:53 AM 46.0 °F 41.4 °F 33.1 °F 61% 29.80 in 10.0 mi WSW 9.2 mph - N/A   Clear
2:53 AM 45.0 °F 39.3 °F 33.1 °F 63% 29.79 in 10.0 mi WSW 11.5 mph - N/A   Clear
3:53 AM 45.0 °F 43.5 °F 32.0 °F 60% 29.78 in 10.0 mi West 3.5 mph - N/A   Clear
4:53 AM 42.1 °F 39.2 °F 32.0 °F 67% 29.78 in 10.0 mi WSW 4.6 mph - N/A   Clear
5:53 AM 43.0 °F 39.5 °F 33.1 °F 68% 29.79 in 10.0 mi SW 5.8 mph - N/A   Clear
6:53 AM 48.9 °F - 35.1 °F 59% 29.79 in 10.0 mi SW 10.4 mph - N/A   Clear
7:53 AM 57.0 °F - 35.1 °F 44% 29.79 in 10.0 mi WSW 9.2 mph - N/A   Clear
8:53 AM 64.9 °F - 32.0 °F 29% 29.86 in 10.0 mi NNE 15.0 mph 26.5 mph N/A   Clear
9:53 AM 66.0 °F - 33.1 °F 29% 29.85 in 10.0 mi NNE 15.0 mph - N/A   Clear
10:53 AM 69.1 °F - 33.1 °F 26% 29.86 in 10.0 mi NNE 15.0 mph 23.0 mph N/A   Clear
11:53 AM 69.1 °F - 33.1 °F 26% 29.86 in 10.0 mi NE 13.8 mph 21.9 mph N/A   Clear
12:53 PM 68.0 °F - 33.1 °F 27% 29.87 in 10.0 mi NNE 11.5 mph 20.7 mph N/A   Clear
1:53 PM 71.1 °F - 34.0 °F 26% 29.86 in 10.0 mi ENE 10.4 mph 20.7 mph N/A   Clear
2:53 PM 72.0 °F - 34.0 °F 25% 29.86 in 10.0 mi NE 12.7 mph 21.9 mph N/A   Clear
3:53 PM 70.0 °F - 34.0 °F 27% 29.86 in 10.0 mi ENE 8.1 mph - N/A   Clear
4:53 PM 70.0 °F - 36.0 °F 29% 29.86 in 10.0 mi NE 16.1 mph - N/A   Clear
5:53 PM 66.0 °F - 35.1 °F 32% 29.86 in 10.0 mi NE 18.4 mph 26.5 mph N/A   Clear
6:53 PM 60.1 °F - 37.0 °F 42% 29.87 in 10.0 mi NE 18.4 mph 27.6 mph N/A   Clear
7:53 PM 57.9 °F - 37.9 °F 47% 29.88 in 10.0 mi NE 10.4 mph - N/A   Clear
8:53 PM 54.0 °F - 37.9 °F 55% 29.89 in 10.0 mi East 4.6 mph - N/A   Overcast
9:53 PM 54.0 °F - 39.0 °F 57% 29.90 in 10.0 mi NNE 3.5 mph - N/A   Overcast
10:53 PM 52.0 °F - 39.9 °F 63% 29.90 in 10.0 mi NNE 16.1 mph 24.2 mph N/A   Mostly Cloudy
11:53 PM 48.9 °F - 39.9 °F 71% 29.92 in 10.0 mi NE 6.9 mph - N/A   Scattered Clouds